Regional Weather Roundup
Issued by NWS

Home | Current Version | Previous Version | Graphics & Text | Print | Product List | Glossary On
Versions: 1 2 3 4 5 6 7 8 9 10 11 12 13 14 15 16 17 18 19 20 21 22 23 24 25 26 27 28 29 30 31 32 33 34 35 36 37 38 39 40 41 42 43 44 45 46 47 48 49 50
000
ASUS43 KLSX 060659
RWRMO

WEATHER SUMMARY FOR MISSOURI
NATIONAL WEATHER SERVICE SPRINGFIELD MO
200 AM CDT WED MAY 06 2015

NOTE: "FAIR" INDICATES FEW OR NO CLOUDS BELOW 12,000 FEET WITH NO
       SIGNIFICANT WEATHER AND/OR OBSTRUCTIONS TO VISIBILITY.
       CURRENT SKY AND/OR WEATHER CONDITIONS ARE NOT AVAILABLE FOR
       CHILLICOTHE AND FARMINGTON.

MOZ001>031-035>038-043-044-053-054-060800-
...NORTHERN AND WESTERN MISSOURI...

CITY           SKY/WX    TMP DP  RH WIND       PRES   REMARKS
KANSAS CTY INT CLOUDY    65  59  81 SE12      29.99F
KANSAS C DTWN  MOCLDY    71  56  58 SE9       29.98F
LEE`S SUMMIT   MOCLDY    68  56  65 SE6       30.00F
ST JOSEPH      MOCLDY    65  61  87 SW3       29.99F
CHILLICOTHE      N/A     68  59  73 SE5       30.04F
KIRKSVILLE     PTCLDY    63  59  87 S8        30.08F

$$
MOZ066>068-077>081-088>096-101>105-060800-
...SOUTHWEST MISSOURI...

CITY           SKY/WX    TMP DP  RH WIND       PRES   REMARKS
SPRINGFIELD    MOCLDY    68  52  56 SE14      30.05F
JOPLIN         CLOUDY    70  54  56 SE12      30.00F

$$
MOZ032>034-039>042-045>050-055>058-069>072-060800-
...CENTRAL MISSOURI...

CITY           SKY/WX    TMP DP  RH WIND       PRES   REMARKS
COLUMBIA       PTCLDY    65  58  78 SE7       30.08F
JEFFERSON CITY CLEAR     62  57  83 SE8       30.07F
ROLLA          CLEAR     65  54  67 SE12      30.09F
SEDALIA        CLOUDY    64  55  72 SE8       30.05F
OSAGE BEACH    PTCLDY    64  54  68 SE5       30.06F

$$
MOZ051-052-059>065-060800-
...EAST CENTRAL MISSOURI...

CITY           SKY/WX    TMP DP  RH WIND       PRES   REMARKS
ST LOUIS INTL  PTCLDY    73  56  54 S7        30.12F
SPIRIT OF STL  CLEAR     69  56  62 S3        30.11F
ST CHARLES     CLEAR     62  58  86 NE3       30.11F

$$
MOZ072>076-082>087-097>100-106>115-060800-
...SOUTH CENTRAL AND SOUTHEAST MISSOURI...

CITY           SKY/WX    TMP DP  RH WIND       PRES   REMARKS
CAPE GIRARDEAU CLEAR     61  54  77 CALM      30.14F
FARMINGTON     CLEAR     61  54  77 CALM      30.18F
POPLAR BLUFF   CLEAR     59  54  83 CALM      30.12F
WEST PLAINS    CLEAR     61  50  67 SE5       30.12F

$$


USA.gov is the U.S. government's official web portal to all federal, state and local government web resources and services.